Location: Harbor Island
(32.3990°N, 80.4435°W)
Time: 17:47:36
(UTC-04:00)

Daily predictions for brighter satellites

Satellite Brightness Start Highest point End
(mag) Time Altitude Azimuth Time Altitude Azimuth Time Altitude Azimuth
Cosmos 1513 Rocket 4.5 20:10:27 10° S 20:16:30 84° E 20:22:36 10° N
Cosmos 1697 Rocket 3.0 20:13:10 10° SSW 20:18:48 78° WNW 20:24:28 10° NNE
SJ-6B 2.8 20:17:57 10° SSE 20:21:49 83° ENE 20:25:48 10° N
ATLAS CENTAUR R/B 2.4 20:24:02 10° NNW 20:26:39 42° ENE 20:32:43 10° SE
Cosmos 1933 Rocket 4.0 20:23:54 10° NNW 20:28:20 70° W 20:32:46 10° S
Cosmos 1400 Rocket 3.3 20:25:40 10° N 20:29:19 37° E 20:32:59 10° SSE
OTV 4 0.8 20:26:31 10° WNW 20:29:20 51° NNE 20:32:06 10° E
ALOS 2.3 20:25:23 10° SSE 20:30:03 88° WSW 20:34:45 10° NNW
Cosmos 2297 Rocket 2.5 20:25:59 10° NNW 20:31:37 71° WSW 20:37:13 10° S
FENGYUN 3A 3.7 20:26:31 10° SSE 20:31:53 88° ENE 20:37:15 10° NNW
Nadezhda 4 Rocket 4.2 20:26:11 10° N 20:32:16 52° E 20:38:23 10° SSE
DELTA 2 R/B (1) 4.1 20:26:54 10° WNW 20:32:24 53° NNE 20:37:53 10° E
Cosmos 1892 3.1 20:32:22 10° N 20:35:59 41° E 20:39:36 10° SSE
H-2A R/B 2.7 20:35:05 10° SSE 20:38:59 71° ENE 20:42:52 10° N
Cosmos 2322 Rocket 3.0 20:34:56 10° SSE 20:39:35 28° ESE 20:44:16 10° NE
Cosmos 2034 Rocket 4.3 20:34:04 10° SSW 20:40:13 71° W 20:46:23 10° N
Cosmos 1092 Rocket 4.4 20:34:57 10° N 20:40:57 42° E 20:46:53 10° SSE
USA 186 2.6 20:39:39 14° ESE 20:41:09 22° ENE 20:43:23 10° NNE
Meteor 2-3 Rocket 3.7 20:35:44 10° N 20:41:26 72° E 20:47:10 10° SSE
Cosmos 1315 Rocket 3.9 20:38:07 10° NNE 20:41:38 27° ENE 20:44:37 12° SE
Cosmos 1707 Rocket 3.7 20:40:21 10° SSE 20:44:39 51° E 20:48:57 10° NNE
Abrixas rocket 4.5 20:43:11 10° W 20:46:01 26° NNW 20:48:51 10° NNE
Spot 2 Rocket 3.5 20:41:09 10° SSE 20:46:12 66° ENE 20:51:15 10° N
Cosmos 1980 Rocket 2.6 20:45:40 10° SSW 20:51:17 70° WNW 20:56:59 10° NNE
CZ-2D R/B 3.2 20:53:28 10° SSE 20:57:21 79° ENE 21:01:15 10° N
Resurs 1-3 3.5 20:54:06 10° SSE 20:58:29 86° ENE 21:02:53 10° N
SL-8 R/B 3.7 20:55:57 10° NW 21:00:47 76° NE 21:03:56 22° ESE
Helios 1B rocket 2.4 20:57:10 10° NNE 21:01:12 56° E 21:05:12 10° S
Lacrosse 4 Rocket 3.5 20:59:58 10° NNE 21:02:14 14° NE 21:03:17 13° ENE
Cosmos 2227 Rocket 4.3 20:57:57 10° NW 21:02:34 26° WSW 21:07:10 10° SSW
Meteor 1-29 3.3 20:59:47 10° NNE 21:03:06 41° E 21:05:52 13° SSE
Envisat 3.5 21:02:48 18° SE 21:06:05 41° ENE 21:10:50 10° N
SL-16 R/B 2.3 21:00:56 10° S 21:06:22 49° ESE 21:11:48 10° NNE
Cosmos 1302 Rocket 4.3 21:01:17 10° SSW 21:06:27 69° WNW 21:11:38 10° N
Cosmos 1869 Rocket 3.5 21:02:40 10° N 21:07:10 81° E 21:11:37 10° S
Cosmos 1900 4.5 21:03:04 10° NNW 21:08:08 63° ENE 21:11:22 22° SE
Cosmos 1825 3.4 21:05:03 10° NNE 21:08:09 23° ENE 21:08:25 23° E
Hubble Space Telescope 3.2 21:08:49 10° SW 21:10:31 12° SSW 21:12:12 10° S
Cosmos 1939 Rocket 3.7 21:09:41 27° ESE 21:10:57 33° ENE 21:14:35 10° N
Cosmos 2242 Rocket 3.8 21:06:38 10° SSE 21:10:59 47° E 21:15:19 10° NNE
Milstar 3 2.9 21:04:53 10° W 21:13:10 65° S 21:17:22 23° ESE
CZ-4B DEB 3.1 21:15:52 38° E 21:15:57 38° ENE 21:18:49 10° N
Cosmos 2279 Rocket 4.2 21:10:41 10° SSE 21:16:35 46° E 21:22:29 10° NNE
Spot 1 4.5 21:13:25 17° SSE 21:17:19 68° ENE 21:22:26 10° N
Cosmos 2195 Rocket 4.5 21:13:43 10° N 21:19:44 58° E 21:23:58 20° SSE
CZ-3 Stage 3 4.1 20:48:17 10° WNW 21:21:15 45° SW 21:26:28 18° SSE
ATLAS 5 CENTAUR R/B 4.4 21:19:18 10° NNE 21:21:58 13° NE 21:24:21 11° ENE
GPS 2-04 Rocket1 3.4 21:19:57 10° W 21:23:21 37° SSW 21:24:17 32° S
USA 234 3.6 21:20:00 24° ESE 21:23:50 52° NE 21:30:09 10° NNW
SEDSat Delta rocket 3.7 21:20:07 10° WSW 21:25:25 60° SSE 21:28:23 29° E
OAO 3 Rocket 3.4 21:21:33 10° W 21:26:26 70° N 21:29:18 25° ENE
Resurs 01 Rocket 3.1 21:23:04 10° SSW 21:27:08 35° W 21:31:14 10° NNW
Meteor 2-20 4.4 21:22:10 10° N 21:28:18 82° E 21:33:17 16° S
Helios 1A 3.0 21:26:48 25° S 21:29:13 85° W 21:33:28 10° NNW
Atlas Centaur 2 3.1 21:23:14 10° SW 21:30:05 50° SSE 21:34:14 28° E
SAR-Lupe-4 3.7 21:32:48 38° S 21:34:02 73° WSW 21:37:37 10° NNW
Cosmos 2227 4.1 21:32:54 10° NNW 21:38:40 89° WSW 21:41:24 33° SSE
FALCON 9 R/B 1.7 21:36:25 10° W 21:38:05 35° NW 21:38:05 35° NW
ERS-1 Rocket 3.3 21:42:11 42° E 21:42:45 44° ENE 21:47:30 10° N
Cosmos 1408 2.6 21:46:33 10° N 21:50:06 78° NW 21:50:06 78° NW
ERBS 3.7 21:50:23 10° NNW 21:52:42 32° N 21:52:42 32° N
SeaSat 1 3.7 22:00:11 28° NE 22:00:11 28° NE 22:03:58 10° N
Cosmos 1992 Rocket 4.2 21:55:07 10° SSW 22:00:19 71° WNW 22:05:34 10° NNE
Cosmos 220 Rocket 4.0 21:57:55 10° NNW 22:02:23 78° WSW 22:02:28 77° WSW
USA 229 DEB 4.0 22:04:47 44° E 22:04:47 44° E 22:10:13 10° NE
USA 229 4.0 22:05:03 43° E 22:05:03 43° E 22:10:18 10° NE
OTV 4 3.4 22:02:39 10° W 22:03:10 13° W 22:03:10 13° W
Cosmos 2026 Rocket 4.3 22:00:29 10° NNW 22:06:37 63° W 22:09:53 28° SSW
MetOp-A 4.3 22:08:20 56° ENE 22:08:20 56° ENE 22:13:21 10° N
Skynet4D Del rocket 4.4 22:00:21 10° WSW 22:08:14 57° S 22:09:21 52° SE
Cosmos 1933 4.2 22:14:41 48° WNW 22:14:41 48° WNW 22:18:25 10° N
DELTA 2 R/B (1) 3.8 22:13:27 10° WNW 22:18:45 56° SW 22:18:45 56° SW
YAOGAN 6 4.2 22:20:14 34° NW 22:20:14 34° NW 22:22:34 10° NNW
H-2A R/B 3.6 22:24:03 24° NE 22:24:03 24° NE 22:26:32 10° N
Cosmos 1503 Rocket 4.4 22:17:14 10° NNW 22:22:21 55° WSW 22:22:48 53° WSW
Cosmos 2322 Rocket 3.9 22:18:31 10° SW 22:23:26 31° WNW 22:28:25 10° N
Terra 4.3 22:26:53 12° NNE 22:26:53 12° NNE 22:27:25 10° NNE
Cosmos 2263 Rocket 2.2 22:19:21 10° NNW 22:24:22 66° NNE 22:24:22 66° NNE
Meteor 2-10 Rocket 4.0 22:30:49 58° SW 22:31:42 68° W 22:37:30 10° N
Cosmos 2360 Rocket 2.3 22:34:15 72° WNW 22:34:17 72° WNW 22:39:57 10° NNE
Cosmos 1733 Rocket 4.5 22:30:36 10° NNW 22:34:27 35° W 22:34:27 35° W
Cosmos 2322 4.0 22:40:41 60° N 22:40:41 60° N 22:45:25 10° NNE
Lacrosse 4 Rocket 3.1 22:36:58 10° NW 22:39:39 33° WNW 22:39:39 33° WNW
SPOT 5 4.2 22:54:50 38° NNW 22:54:50 38° NNW 22:57:49 10° NNW
Cosmos 2266 Rocket 4.2 22:48:12 10° N 22:53:45 69° NW 22:53:45 69° NW
Centaur AC-42 4.4 22:50:18 10° W 22:57:14 22° SW 22:57:14 22° SW
USA 234 4.2 23:07:21 36° WSW 23:07:21 36° WSW 23:12:47 10° WNW
ATLAS 5 CENTAUR R/B 3.1 23:01:22 10° NNW 23:05:54 51° N 23:05:54 51° N
ARGOS 4.4 23:11:51 37° NW 23:11:51 37° NW 23:15:24 10° NNW
Atlas Centaur 2 3.6 23:11:50 10° WSW 23:16:54 45° WSW 23:16:54 45° WSW
